Paganella, Italy

1:16 PM CEST on April 22, 2018 (GMT +0200)
Paganella

Weather History for LIVP - October, 2013

Change the Weather History Date:

Friday, October 4, 2013

  Actual Average Record
Temperature  
Mean Temperature 44 °F -  
Max Temperature 52 °F 42 °F 57 °F (2011)
Min Temperature 35 °F 34 °F 21 °F (2008)
Degree Days  
Heating Degree Days 22    
Moisture  
Dew Point 36 °F    
Average Humidity 74    
Maximum Humidity 100    
Minimum Humidity 51    
Precipitation  
Precipitation 0.00 in 0.09 in - ()
Sea Level Pressure  
Sea Level Pressure 30.29 in    
Wind  
Wind Speed 3 mph ()    
Max Wind Speed 9 mph    
Max Gust Speed -    
Visibility 4.7 miles    
Events Fog    
Averages and records for this station are not official NWS values.
T = Trace of Precipitation, MM = Missing Value Source: Averaged Metar Reports

Daily Weather History Graph

Daily Weather History Graph

Search for Another Location

Airport or City:

Astronomy

Oct. 04, 2013 Rise Set
Actual Time 7:18 AM CEST 6:50 PM CEST
Civil Twilight 6:48 AM CEST 7:19 PM CEST
Nautical Twilight 6:13 AM CEST 7:54 PM CEST
Astronomical Twilight 5:38 AM CEST 8:29 PM CEST
Moon 6:35 AM CEST (10/4) 6:21 PM CEST (10/4)
Length of Visible Light 12h 31m
Length of Day
11h 31m
Waning Crescent, 0% of the Moon is Illuminated
Oct 4
Waning Crescent
Oct 5
New
Oct 12
First Quarter
Oct 19
Full
Oct 27
Last Quarter

Hourly Weather History & Observations

Time (CEST) Temp. Windchill Dew Point Humidity Pressure Visibility Wind Dir Wind Speed Gust Speed Precip Events Conditions
12:55 AM 35.6 °F - 35.6 °F 100% 30.27 in 0.0 mi Calm Calm - N/A Fog Fog
1:55 AM 35.6 °F 28.6 °F 35.6 °F 100% 30.27 in 0.0 mi NW 9.2 mph - N/A Fog Fog
2:00 AM 35 °F - 35 °F 100%  in 0 mi NW 9.2 mph - - Fog Heavy Fog
2:55 AM 35.6 °F 29.9 °F 35.6 °F 100% 30.30 in 0.0 mi NNW 6.9 mph - N/A Fog Fog
3:55 AM 35.6 °F - 35.6 °F 100% 30.30 in 0.0 mi NNW 2.3 mph - N/A Fog Fog
4:55 AM 35.6 °F 31.7 °F 35.6 °F 100% 30.27 in 0.0 mi North 4.6 mph - N/A Fog Fog
5:00 AM 36 °F - 36 °F 98%  in 0 mi North 4.6 mph - - Fog Heavy Fog
6:55 AM 41.0 °F - 33.8 °F 76% 30.27 in 6.2 mi Calm Calm - N/A   Scattered Clouds
7:55 AM 41.0 °F - 33.8 °F 76% 30.27 in 6.2 mi Calm Calm - N/A   Scattered Clouds
8:00 AM 41 °F - 34 °F 68%  in 25 mi Calm Calm - -   Partly Cloudy
8:55 AM 42.8 °F 40.1 °F 35.6 °F 76% 30.30 in 6.2 mi NNW 4.6 mph - N/A   Partly Cloudy
9:55 AM 44.6 °F - 35.6 °F 71% 30.27 in - North 2.3 mph - N/A   Clear
10:55 AM 44.6 °F - 35.6 °F 71% 30.30 in - North 2.3 mph - N/A   Clear
11:00 AM 45 °F - 36 °F 61%  in 31 mi North 2.3 mph - -   Scattered Clouds
11:55 AM 44.6 °F 43.1 °F 35.6 °F 71% 30.30 in - North 3.5 mph - N/A   Clear
12:55 PM 48.2 °F - 37.4 °F 66% 30.30 in - North 4.6 mph - N/A   Clear
1:55 PM 48.2 °F - 37.4 °F 66% 30.30 in - North 2.3 mph - N/A   Clear
2:00 PM 49 °F - 36 °F 51%  in 31 mi North 2.3 mph - -   Partly Cloudy
2:55 PM 50.0 °F - 35.6 °F 58% 30.30 in - North 2.3 mph - N/A   Clear
3:55 PM 50.0 °F - 37.4 °F 62% 30.30 in - Calm Calm - N/A   Clear
4:55 PM 51.8 °F - 39.2 °F 62% 30.30 in - Calm Calm - N/A   Clear
5:00 PM 52 °F - 40 °F 53%  in 31 mi Calm Calm - -   Partly Cloudy
5:55 PM 48.2 °F - 39.2 °F 71% 30.30 in - WSW 4.6 mph - N/A   Clear
6:55 PM 46.4 °F 43.5 °F 35.6 °F 66% 30.30 in - SSW 5.8 mph - N/A   Clear
7:55 PM 44.6 °F 40.7 °F 33.8 °F 66% 30.30 in - SSW 6.9 mph - N/A   Clear
8:00 PM 44 °F - 34 °F 59%  in 19 mi SSW 6.9 mph - -   Scattered Clouds
8:55 PM 42.8 °F 39.3 °F 35.6 °F 76% 30.30 in - SSW 5.8 mph - N/A   Clear
9:55 PM 42.8 °F 39.3 °F 30.2 °F 61% 30.30 in - SSW 5.8 mph - N/A   Clear
10:55 PM 41.0 °F 36.4 °F 33.8 °F 76% 30.30 in - SSW 6.9 mph - N/A   Clear
11:00 PM 41 °F - 33 °F 66%  in 19 mi SSW 6.9 mph - -   Clear
11:55 PM 41.0 °F 38.0 °F 33.8 °F 76% 30.30 in - SW 4.6 mph - N/A   Clear